User: anonymous   Login
Location: Unspecified
(0.0000°N, 0.0000°E)
Time: 01:57:31
(UTC+00:00)
Language:

OPTUS D1 - Orbit

View from above orbital plane
View from above orbital plane
View from above satellite
View from above satellite

Ground track
Ground track

The orbit data is extracted from the following two-line orbital elements,

1 29495U 06043B   15123.58099539 -.00000112  00000-0  10000-3 0  9991
2 29495 000.0464 041.3416 0002719 351.7113 197.2792 01.00272761 31405
Epoch (UTC): 03 May 2015 13:56:38
Eccentricity: 0.0002719
inclination: 0.0464°
perigee height: 35774 km
apogee height: 35797 km
right ascension of ascending node: 41.3416°
argument of perigee: 351.7113°
revolutions per day: 1.00272761
mean anomaly at epoch: 197.2792°
orbit number at epoch: 3140

The dashed part of the orbit path shows where the satellite is in the earth's shadow,  

DLR